マックホルツ彗星

C/2004 Q2 ( Machholz )

English version
Home page
Total 6,336 html files since Dec. 4, 1995
Updated on September 3, 2006

---------------------------------------------------------------------

・ プロフィール

発見日 2004年8月27日
発見光度 11.2等
発見者 Donald Edward Machholz (Colfax, CA)

・ 写真集

・ 軌道要素

The following orbital elements are taken from MPC 54558:

Epoch 2005 Jan. 30.0 TT = JDT 2453400.5
T 2005 Jan. 24.9113 TT                                  MPC
q   1.205045             (2000.0)            P               Q
z  +0.000447       Peri.   19.5043      -0.3200320      -0.7142059
                   Node    93.6241      +0.7651321      -0.5823130
e   0.999461       Incl.   38.5893      +0.5587061      +0.3883574
From 2809 observations 2004 Aug. 27-2005 July 16, mean residual 0".5.
     Nongravitational parameters A1 = +1.20, A2 = +0.0795.

・ 星図

・ 光度変化

        m1 = 5.0 + 5 logΔ + 10.0 log r

---------------------------------------------------------------------

軌道要素はMPCのEphemerides and Orbital Elementsに掲載されたものです。
星図は StellaNavigator Ver.2.0 for Windows (アストロアーツ 編著 / アスキー出版局刊) で作成したものです。
光度グラフはComet for Windowsで作成したものです。

---------------------------------------------------------------------

Copyright(C) 1995-2008 Seiichi Yoshida (comet@aerith.net). All rights reserved.